Location: *
(46.1200°N, 11.2700°E)
Time: 23:04:26
(UTC+00:00)

Cosmos 2333 Rocket - Visible Passes

Search period start: 24 June 2021 00:00
Search period end: 04 July 2021 00:00
Orbit: 839 x 862 km, 70.8° (Epoch: 24 June)

Date Brightness Start Highest point End Pass type
(mag) Time Alt. Az. Time Alt. Az. Time Alt. Az.
24 Jun 4.2 21:14:38 10° WSW 21:19:38 30° NW 21:24:39 10° N visible
25 Jun 5.7 02:40:08 10° NNE 02:41:23 11° NNE 02:42:37 10° NE visible
25 Jun 4.2 21:02:22 10° WSW 21:07:22 30° NW 21:12:23 10° N visible
26 Jun 5.8 02:27:53 10° NNE 02:29:06 11° NNE 02:30:21 10° NE visible
26 Jun 4.3 20:50:07 10° WSW 20:55:07 30° NW 21:00:07 10° N visible
27 Jun 5.8 02:15:37 10° NNE 02:16:51 11° NNE 02:18:05 10° NE visible
27 Jun 4.3 20:37:51 10° WSW 20:42:51 30° NW 20:47:51 10° N visible
28 Jun 5.9 02:03:21 10° NNE 02:04:35 11° NNE 02:05:49 10° NE visible
28 Jun 4.4 20:25:36 10° WSW 20:30:35 30° NW 20:35:35 10° N visible
29 Jun 5.9 01:51:05 10° NNE 01:52:20 11° NNE 01:53:33 10° NE visible
29 Jun 4.4 20:13:20 10° WSW 20:18:19 30° NW 20:23:19 10° N visible
30 Jun 6.0 01:38:50 10° NNE 01:40:04 11° NNE 01:41:17 10° NE visible
30 Jun 4.5 20:01:04 10° WSW 20:06:04 30° NW 20:11:03 10° N visible
01 Jul 5.9 01:26:34 10° NNE 01:27:47 11° NNE 01:29:01 10° NE visible
01 Jul 4.5 19:48:49 10° WSW 19:53:48 30° NW 19:58:48 10° N visible
02 Jul 5.8 01:14:19 10° NNE 01:15:32 11° NNE 01:16:45 10° NE visible
03 Jul 5.8 01:02:03 10° NNE 01:03:16 11° NNE 01:04:29 10° NE visible
03 Jul 3.7 02:43:48 10° NNW 02:49:11 42° NE 02:54:32 10° SE visible
